• Processing (Info)

  • MPEC 2023-Q132 : 2023 QK5

    The following Minor Planet Electronic Circular may be linked-to from your own Web pages, but must not otherwise be redistributed electronically.

    A form allowing access to any MPEC is at the bottom of this page.


    Read MPEC 2023-Q131 Read MPEC 2023-Q133


    M.P.E.C. 2023-Q132                              Issued 2023 August 24, 22:12 UT
    
         The Minor Planet Electronic Circulars contain information on unusual
             minor planets, routine data on comets and natural satellites,
             and occasional editorial announcements.  They are published
        on behalf of Division F of the International Astronomical Union by the
              Minor Planet Center, Smithsonian Astrophysical Observatory,
                              Cambridge, MA 02138, U.S.A.
    			  
                 Prepared using the Tamkin Foundation Computer Network
    
                                  MPC@CFA.HARVARD.EDU
                URL https://www.minorplanetcenter.net/    ISSN 1523-6714
    
                                    2023 QK5                                 
    
    
    Observations:
         K23Q05K*KC2023 08 23.84823 20 18 02.75 +02 02 50.0          19.7 GXEQ132L51
         K23Q05K KC2023 08 23.84981 20 18 03.94 +02 02 58.9          19.6 GXEQ132L51
         K23Q05K KC2023 08 23.85138 20 18 05.14 +02 03 06.7          19.7 GXEQ132L51
         K23Q05K KC2023 08 23.92988 20 19 06.74 +02 10 06.8          20.4 GXEQ132L51
         K23Q05K KC2023 08 23.93299 20 19 09.20 +02 10 23.2          20.9 GXEQ132L51
         K23Q05K KC2023 08 23.93609 20 19 11.71 +02 10 39.8          20.3 GXEQ132L51
         K23Q05K KC2023 08 23.97397820 19 52.510+02 13 38.42               VEQ132J95
         K23Q05K KB2023 08 23.97437620 19 51.85 +02 14 12.6          19.9 GVEQ132I93
         K23Q05K KB2023 08 23.97837420 19 55.06 +02 14 34.3          19.7 GVEQ132I93
         K23Q05K KB2023 08 23.98227020 19 58.17 +02 14 55.4          20.0 GVEQ132I93
         K23Q05K KC2023 08 23.98650220 20 02.786+02 14 47.29         20.3 GVEQ132J95
         K23Q05K KC2023 08 24.10815220 22 08.99 +02 27 09.2                uEQ132H21
         K23Q05K KC2023 08 24.11375720 22 13.71 +02 27 41.7          20.3 VuEQ132H21
         K23Q05K KC2023 08 24.12495220 22 23.08 +02 28 46.8          20.5 VuEQ132H21
         K23Q05K KC2023 08 24.84844 20 35 14.18 +03 45 59.6          19.9 GXEQ132L51
         K23Q05K KC2023 08 24.85155 20 35 17.55 +03 46 22.1          20.2 GXEQ132L51
         K23Q05K KC2023 08 24.85464 20 35 20.92 +03 46 44.5          19.9 GXEQ132L51
         K23Q05K KC2023 08 24.88415220 36 00.37 +03 50 14.6          20.5 GVEQ132L01
         K23Q05K KC2023 08 24.88563620 36 01.99 +03 50 24.6          20.7 GVEQ132L01
         K23Q05K pC2023 08 24.88711920 36 03.57 +03 50 36.0          20.6 GVEQ132L01
         K23Q05K KC2023 08 24.88860120 36 05.21 +03 50 46.8          20.4 GVEQ132L01
         K23Q05K KC2023 08 24.89008320 36 06.90 +03 50 57.2          20.2 GVEQ132L01
    
    Observer details:
    H21 Astronomical Research Observatory, Westfield.  Observer R. Holmes.
        Measurers T. Linder, R. Holmes, L. Horn.  0.76-m f/3.0 astrograph + CCD.
    I93 St Pardon de Conques.  Observer F. Losse.  0.40-m f/3.7 reflector + CMO.
    J95 Great Shefford.  Observer P. Birtwhistle.  0.41-m f/6.3 Schmidt-Cassegrain
        + CCD.
    L01 Visnjan Observatory, Tican.  Observers K. Korlevic, M. Markovic.  Measurer
        K. Korlevic.  1.0-m f/2.9 reflector + CCD.
    L51 MARGO, Nauchnyi.  Observer G. Borisov.  0.50-m f/1.9 reflector + CCD.
    
    Orbital elements:
    2023 QK5                                                 Earth MOID = 0.0014 AU
    Epoch 2023 Sept. 13.0 TT = JDT 2460200.5                Veres                   
    M 357.89563              (2000.0)            P               Q                  
    n   0.43755793     Peri.  199.88544     +0.99947855     +0.02551262             
    a   1.7183528      Node   158.62365     -0.01695313     +0.93629799             
    e   0.4214971      Incl.    3.11276     -0.02748133     +0.35027871             
    P   2.25           H   27.42          G   0.15           U   9                  
    Residuals in seconds of arc
    230823 L51  1.6+  0.9+    230823 I93  0.3-  0.1+    230824 L51  0.3+  0.4+
    230823 L51  1.3+  1.4+    230823 I93  0.7-  0.2-    230824 L01  0.3+  0.1+
    230823 L51  1.2+  0.8+    230823 J95  0.2+  0.3-    230824 L01  0.1+  0.7-
    230823 L51  0.7+  0.4+    230824 H21  0.3-  0.1+    230824 L01  0.7-  0.1-
    230823 L51  0.1-  0.0     230824 H21  0.1+  0.2+    230824 L01  0.5-  0.1-
    230823 L51  0.1-  0.2-    230824 H21  0.2+  0.6+    230824 L01  0.3+  0.5-
    230823 J95  0.2-  0.3-    230824 L51  0.1+  0.1+
    230823 I93  0.2-  0.4+    230824 L51  0.1+  0.2+
    
    Ephemeris:
    2023 QK5                 a,e,i = 1.72, 0.42, 3                   q = 0.9941
    Date    TT    R. A. (2000) Decl.     Delta      r    Elong.  Phase     V
    2023 07 25    19 16 12.1 -07 02 19   0.1487  1.1573   160.8    16.7    24.5
    ...
    2023 08 09    19 18 04.0 -04 55 52   0.08236 1.0858   149.6    28.2    23.4
    ...
    2023 08 17    19 31 01.8 -02 56 32   0.05010 1.0543   145.6    32.9    22.4
    ...
    2023 08 23    20 07 08.0 +00 59 37   0.02713 1.0345   147.9    31.3    21.0
    2023 08 24    20 20 19.8 +02 20 40   0.02351 1.0316   149.6    29.7    20.6
    2023 08 25    20 38 22.7 +04 09 14   0.02001 1.0287   152.0    27.5    20.2
    ...
    2023 08 31    02 53 26.2 +21 07 38   0.01198 1.0138   109.8    69.5    20.3
    ...
    2023 09 08    05 49 31.3 +11 47 47   0.03896 1.0001    77.7   100.2    24.0
    ...
    2023 09 23    06 27 59.5 +08 43 41   0.09451 0.9958    82.5    92.1    25.6
    
    M. P. C. Staff               (C) Copyright 2023 MPC           M.P.E.C. 2023-Q132
    


    Read MPEC 2023-Q131 Read MPEC 2023-Q133


    MPEC number:

    Enter an MPEC number in one of the following forms:

    • 1997-B01 (the full form)
    • J97B01 (the packed version of the full form)
    • B01 (the abbreviated form)